TimePDT,TemperatureF,Dew PointF,Humidity,Sea Level PressureIn,VisibilityMPH,Wind Direction,Wind SpeedMPH,Gust SpeedMPH,PrecipitationIn,Events,Conditions,WindDirDegrees,DateUTC
12:15 AM,51.8,-9999,N/A,29.80,10.0,Calm,Calm,-,N/A,,Overcast,0,2013-05-28 07:15:00
12:35 AM,51.8,-9999,N/A,29.79,10.0,Calm,Calm,-,N/A,,Overcast,0,2013-05-28 07:35:00
12:55 AM,51.8,-9999,N/A,29.79,10.0,Calm,Calm,-,N/A,,Overcast,0,2013-05-28 07:55:00
1:15 AM,51.8,-9999,N/A,29.79,5.0,Calm,Calm,-,N/A,,Overcast,0,2013-05-28 08:15:00
1:35 AM,50.0,50.0,100,29.79,5.0,Calm,Calm,-,N/A,,Mostly Cloudy,0,2013-05-28 08:35:00
1:55 AM,50.0,50.0,100,29.79,7.0,NNE,3.5,-,N/A,,Mostly Cloudy,30,2013-05-28 08:55:00
2:15 AM,50.0,50.0,100,29.79,10.0,NNE,3.5,-,N/A,,Overcast,30,2013-05-28 09:15:00
2:35 AM,50.0,-9999,N/A,29.79,10.0,Calm,Calm,-,N/A,,Overcast,0,2013-05-28 09:35:00
2:55 AM,50.0,50.0,100,29.79,10.0,Calm,Calm,-,N/A,,Overcast,0,2013-05-28 09:55:00
3:15 AM,50.0,50.0,100,29.79,10.0,Calm,Calm,-,N/A,,Overcast,0,2013-05-28 10:15:00
3:35 AM,50.0,50.0,100,29.79,10.0,Calm,Calm,-,N/A,,Overcast,0,2013-05-28 10:35:00
3:55 AM,50.0,50.0,100,29.79,10.0,Calm,Calm,-,N/A,,Overcast,0,2013-05-28 10:55:00
4:15 AM,50.0,50.0,100,29.79,10.0,Calm,Calm,-,N/A,,Overcast,0,2013-05-28 11:15:00
4:35 AM,50.0,-9999,N/A,29.80,10.0,Calm,Calm,-,N/A,,Overcast,0,2013-05-28 11:35:00
4:55 AM,48.2,-9999,N/A,29.80,7.0,WSW,10.4,16.1,0.02,,Overcast,250,2013-05-28 11:55:00
5:15 AM,48.2,-9999,N/A,29.80,5.0,WSW,8.1,-,N/A,,Mostly Cloudy,250,2013-05-28 12:15:00
5:35 AM,48.2,-9999,N/A,29.80,10.0,WSW,6.9,-,N/A,,Overcast,250,2013-05-28 12:35:00
5:55 AM,48.2,-9999,N/A,29.80,10.0,WSW,6.9,-,N/A,,Mostly Cloudy,240,2013-05-28 12:55:00
6:15 AM,48.2,-9999,N/A,29.80,10.0,West,4.6,-,N/A,,Overcast,260,2013-05-28 13:15:00
6:35 AM,50.0,-9999,N/A,29.80,10.0,WSW,6.9,-,N/A,,Overcast,250,2013-05-28 13:35:00
6:55 AM,50.0,-9999,N/A,29.81,10.0,WSW,8.1,-,N/A,,Overcast,250,2013-05-28 13:55:00
7:15 AM,50.0,-9999,N/A,29.81,10.0,WSW,5.8,-,N/A,,Overcast,250,2013-05-28 14:15:00
7:35 AM,50.0,-9999,N/A,29.81,10.0,WSW,8.1,-,N/A,,Overcast,240,2013-05-28 14:35:00
7:55 AM,50.0,-9999,N/A,29.82,10.0,WSW,8.1,-,N/A,,Overcast,240,2013-05-28 14:55:00
8:15 AM,51.8,-9999,N/A,29.82,10.0,WSW,9.2,-,N/A,,Overcast,240,2013-05-28 15:15:00
8:35 AM,51.8,-9999,N/A,29.83,10.0,WSW,5.8,-,N/A,,Overcast,250,2013-05-28 15:35:00
8:55 AM,51.8,-9999,N/A,29.83,10.0,West,6.9,-,N/A,,Overcast,260,2013-05-28 15:55:00
9:15 AM,51.8,-9999,N/A,29.83,10.0,WSW,5.8,-,N/A,,Mostly Cloudy,240,2013-05-28 16:15:00
9:35 AM,53.6,-9999,N/A,29.83,10.0,WSW,6.9,-,N/A,,Overcast,240,2013-05-28 16:35:00
9:55 AM,53.6,-9999,N/A,29.83,10.0,West,6.9,-,N/A,,Overcast,270,2013-05-28 16:55:00
10:15 AM,53.6,-9999,N/A,29.83,10.0,WSW,6.9,-,N/A,,Overcast,240,2013-05-28 17:15:00
10:35 AM,55.4,-9999,N/A,29.84,10.0,SW,9.2,-,N/A,,Overcast,230,2013-05-28 17:35:00
10:55 AM,55.4,-9999,N/A,29.83,10.0,West,10.4,-,N/A,,Mostly Cloudy,260,2013-05-28 17:55:00
11:15 AM,55.4,-9999,N/A,29.83,10.0,WSW,12.7,-,N/A,,Overcast,240,2013-05-28 18:15:00
11:35 AM,55.4,-9999,N/A,29.83,10.0,West,10.4,-,N/A,,Overcast,270,2013-05-28 18:35:00
11:55 AM,57.2,-9999,N/A,29.83,10.0,WSW,9.2,-,N/A,,Overcast,240,2013-05-28 18:55:00
12:15 PM,59.0,59.0,100,29.83,10.0,West,9.2,-,N/A,,Overcast,270,2013-05-28 19:15:00
12:35 PM,62.6,62.6,100,29.83,10.0,West,11.5,16.1,N/A,,Overcast,260,2013-05-28 19:35:00
12:55 PM,57.2,53.6,88,29.84,10.0,SW,10.4,-,N/A,,Overcast,220,2013-05-28 19:55:00
1:15 PM,57.2,53.6,88,29.84,10.0,West,11.5,-,N/A,,Overcast,260,2013-05-28 20:15:00
1:35 PM,55.4,48.2,77,29.84,10.0,South,4.6,-,N/A,,Overcast,190,2013-05-28 20:35:00
1:55 PM,55.4,50.0,82,29.85,10.0,Calm,Calm,-,N/A,,Overcast,0,2013-05-28 20:55:00
2:15 PM,57.2,53.6,88,29.85,10.0,SSE,4.6,-,N/A,,Overcast,160,2013-05-28 21:15:00
2:35 PM,57.2,48.2,72,29.85,10.0,WSW,6.9,-,N/A,,Overcast,250,2013-05-28 21:35:00
2:55 PM,55.4,51.8,88,29.85,10.0,South,9.2,-,N/A,,Overcast,190,2013-05-28 21:55:00
3:15 PM,55.4,51.8,88,29.85,10.0,SSE,4.6,-,0.02,,Overcast,160,2013-05-28 22:15:00
3:35 PM,57.2,50.0,77,29.85,10.0,ENE,3.5,-,0.02,,Mostly Cloudy,70,2013-05-28 22:35:00
3:55 PM,57.2,51.8,82,29.84,8.0,Calm,Calm,-,0.02,,Mostly Cloudy,0,2013-05-28 22:55:00
4:15 PM,57.2,50.0,77,29.84,10.0,East,4.6,-,0.01,,Mostly Cloudy,90,2013-05-28 23:15:00
4:35 PM,57.2,51.8,82,29.84,10.0,ESE,8.1,-,0.01,,Overcast,110,2013-05-28 23:35:00
4:55 PM,57.2,51.8,82,29.84,10.0,East,5.8,-,0.01,,Overcast,100,2013-05-28 23:55:00
5:15 PM,55.4,51.8,88,29.83,10.0,East,8.1,-,N/A,,Mostly Cloudy,100,2013-05-29 00:15:00
5:35 PM,57.2,51.8,82,29.82,10.0,East,5.8,-,N/A,,Overcast,100,2013-05-29 00:35:00
5:55 PM,57.2,51.8,82,29.82,10.0,ESE,5.8,-,N/A,,Overcast,110,2013-05-29 00:55:00
6:15 PM,60.8,51.8,72,29.81,10.0,ESE,3.5,-,N/A,,Mostly Cloudy,110,2013-05-29 01:15:00
6:35 PM,59.0,50.0,72,29.81,10.0,Calm,Calm,-,N/A,,Partly Cloudy,0,2013-05-29 01:35:00
6:55 PM,57.2,46.4,67,29.80,10.0,NNW,3.5,-,N/A,,Mostly Cloudy,330,2013-05-29 01:55:00
7:15 PM,57.2,48.2,72,29.81,10.0,West,17.3,-,N/A,,Mostly Cloudy,280,2013-05-29 02:15:00
7:35 PM,55.4,46.4,72,29.81,8.0,Calm,Calm,-,0.07,,Overcast,0,2013-05-29 02:35:00
7:55 PM,55.4,51.8,88,29.81,10.0,Calm,Calm,-,0.07,,Overcast,0,2013-05-29 02:55:00
8:15 PM,55.4,48.2,77,29.81,10.0,Calm,Calm,-,N/A,,Overcast,0,2013-05-29 03:15:00
8:35 PM,53.6,48.2,82,29.81,10.0,SE,5.8,-,N/A,,Overcast,130,2013-05-29 03:35:00
8:55 PM,53.6,48.2,82,29.81,10.0,ESE,6.9,-,N/A,,Overcast,120,2013-05-29 03:55:00
9:15 PM,53.6,48.2,82,29.81,10.0,ESE,6.9,-,N/A,,Overcast,120,2013-05-29 04:15:00
9:35 PM,53.6,48.2,82,29.81,10.0,ESE,5.8,-,N/A,,Overcast,120,2013-05-29 04:35:00
9:55 PM,53.6,48.2,82,29.81,10.0,ESE,5.8,-,N/A,,Overcast,120,2013-05-29 04:55:00
10:15 PM,51.8,46.4,82,29.81,10.0,North,4.6,-,N/A,,Overcast,10,2013-05-29 05:15:00
10:35 PM,51.8,46.4,82,29.81,10.0,NE,3.5,-,N/A,,Overcast,40,2013-05-29 05:35:00
10:55 PM,51.8,46.4,82,29.81,10.0,NE,3.5,-,N/A,,Overcast,40,2013-05-29 05:55:00
11:15 PM,51.8,48.2,88,29.81,10.0,NE,3.5,-,N/A,,Overcast,40,2013-05-29 06:15:00
11:35 PM,51.8,48.2,88,29.81,10.0,Calm,Calm,-,N/A,,Overcast,0,2013-05-29 06:35:00
11:55 PM,51.8,48.2,88,29.80,10.0,Calm,Calm,-,N/A,,Overcast,0,2013-05-29 06:55:00